SCP
0 0 0 0 0 0 0 0 0 0 0 0 1 1 0 1 0 1 0 0 1 1 0 0 0 0 0 0 0 0 0 0 0 0 0 0 0 0 0 -0 -0 -0 -0 -0 -0 0 0 0 -0
0 0 0 0 0 0 0 0 0 0 0 1 0 1 1 1 1 0 0 1 1 1 0 0 0 -0 0 0 0 0 0 0 0 0 0 0 0 0 0 -0 -0 -0 -0 -0 -0 0 0 0 -0
0 0 0 0 0 0 0 0 0 0 0 0 0 0 0 1 0 0 0 1 1 0 0 -0 0 0 0 0 0 0 0 0 0 0 0 0 0 0 0 -0 -0 -0 -0 -0 -0 -0 -0 -0 0
0 0 0 0 0 0 0 0 0 0 0 0 0 0 0 0 0 0 0 0 1 0 0 0 0 0 0 0 0 0 0 0 0 0 0 0 0 0 0 0 -0 -0 -0 -0 -0 -0 -0 0 0
0 0 0 0 0 0 0 0 0 0 0 0 0 0 0 0 0 0 0 0 1 0 0 0 0 0 0 0 0 0 0 0 0 0 0 0 0 0 0 0 0 -0 -0 -0 -0 -0 0 0 0
0 0 0 0 0 0 0 -0 -0 0 0 0 0 0 0 0 0 1 1 0 1 1 0 0 0 0 0 0 0 0 0 0 0 0 0 0 0 0 0 0 0 0 0 0 0 0 0 0 0
0 0 0 0 0 0 0 -0 -0 0 0 0 0 0 0 0 1 0 0 0 0 0 0 0 0 0 0 0 0 0 0 0 0 0 0 0 0 0 0 0 0 0 0 0 0 0 0 0 0
-0 0 0 0 0 0 0 0 -0 0 0 0 0 0 0 0 0 0 0 0 0 0 0 0 0 0 0 0 0 0 0 0 0 0 0 0 0 0 0 0 0 -0 0 -0 0 0 0 0 0
-0 0 0 0 0 0 0 0 -0 0 0 0 0 0 0 0 0 0 0 0 0 0 0 0 0 0 0 0 0 0 0 0 0 0 0 0 0 0 0 0 -0 -0 -0 0 0 0 0 0 0
0 -0 -0 0 0 0 0 0 0 0 0 0 0 0 0 0 0 0 0 0 0 0 0 0 0 0 0 0 0 -0 0 0 0 0 0 0 0 0 0 -0 0 0 0 0 0 0 0 0 0
0 -0 -0 0 -0 0 -0 -0 0 -0 -0 0 0 0 0 0 0 0 0 0 0 0 0 0 0 0 0 0 -0 -0 0 0 0 0 0 0 0 0 0 0 0 0 0 0 0 0 0 0 0
0 -0 0 0 0 0 0 0 0 -0 0 -0 0 0 0 0 0 0 0 0 0 0 0 0 0 0 0 0 -0 0 0 0 0 0 0 0 0 0 0 0 0 0 0 0 0 0 0 0 0
0 0 0 0 0 0 0 0 -0 -0 -0 0 0 0 0 0 0 0 0 0 0 0 0 0 -0 -0 -0 -0 -0 -0 0 0 0 0 0 0 0 0 0 0 0 0 0 0 0 0 0 0 0
0 0 0 0 0 0 0 -0 -0 -0 -0 0 0 0 0 0 0 0 0 0 0 0 0 -0 0 -0 -0 -0 -0 0 0 0 0 0 0 0 0 0 0 0 0 0 0 0 0 0 0 0 0
0 0 0 -0 -0 -0 0 -0 -0 -0 -0 -0 -0 -0 0 0 0 -0 -0 0 0 0 0 0 -0 -0 -0 -0 0 0 0 0 0 0 0 0 0 0 0 0 0 0 0 0 0 0 0 0 0
0 0 0 0 -0 0 0 0 0 0 -0 0 0 0 -0 -0 -0 0 -0 -0 -0 0 0 0 0 0 0 0 0 0 0 0 0 0 0 0 0 -0 0 0 0 0 0 0 0 0 0 0 0
0 0 0 0 -0 0 -0 0 0 -0 0 -0 -0 -0 -0 -0 -0 -0 -0 -0 -0 -0 0 0 0 0 0 0 0 0 0 0 0 0 0 0 -0 0 0 0 0 0 0 0 0 0 0 0 0
0 0 0 0 0 0 0 0 0 -0 -0 -0 0 0 -0 -0 0 0 0 0 -0 0 0 0 0 0 0 0 0 0 0 0 0 0 0 0 0 0 0 0 0 0 0 0 0 0 0 0 0
0 0 0 -0 -0 -0 -0 0 -0 -0 -0 -0 -0 0 0 -0 -0 -0 -0 -0 -0 -0 -0 0 -0 0 0 0 0 0 0 0 0 0 0 0 0 0 0 0 0 0 0 0 0 0 0 0 0
-0 -0 0 0 0 -0 -0 -0 -0 -0 -0 -0 -0 -0 -0 -0 -0 0 -0 -0 -0 -0 0 0 0 0 0 0 0 0 0 0 0 0 0 0 0 0 0 0 0 0 0 0 0 0 0 0 0
0 -0 0 0 0 -0 -0 -0 0 -0 -0 -0 -0 -0 -0 -0 -0 -0 -0 -0 -0 -0 -0 -0 -0 -0 -0 0 0 0 0 0 0 0 0 0 0 0 0 0 0 0 0 0 0 0 -0 0 0
-0 -0 -0 0 0 0 -0 0 -0 0 -0 -0 -0 -0 -0 -0 -0 0 -0 -0 -0 -0 -0 -0 -0 -0 0 0 0 0 0 0 0 0 0 0 0 0 0 0 0 0 0 0 0 0 0 0 0
0 0 0 0 0 0 0 0 -0 0 -0 -0 -0 -0 -0 -0 -0 -0 -0 -0 0 -0 -0 0 -0 -0 0 0 0 0 0 0 0 0 0 0 0 0 0 0 0 0 0 0 0 0 0 0 0
0 0 0 0 0 0 0 0 -0 0 0 -0 -0 -0 -0 0 -0 -0 0 -0 0 0 0 0 0 0 0 0 0 0 0 0 0 0 0 0 0 0 0 0 0 0 0 0 0 0 0 0 0
0 0 0 0 0 0 0 0 -0 0 -0 -0 0 -0 -0 0 0 0 0 0 0 0 0 0 0 0 0 0 0 0 0 0 0 0 0 0 0 0 0 0 0 0 0 0 0 0 0 0 0
0 0 0 0 0 0 0 0 0 0 0 -0 0 0 0 -0 0 0 0 0 0 0 0 0 0 0 0 0 0 0 0 0 0 0 0 0 0 0 0 0 0 0 0 0 0 0 0 0 0
0 0 0 0 0 0 0 0 0 0 0 0 0 0 0 0 0 0 0 0 0 0 0 0 0 0 0 0 0 0 0 0 0 0 0 0 0 0 0 0 0 0 0 0 0 0 0 0 0
0 0 0 0 0 0 0 0 0 0 0 0 0 0 0 0 0 0 0 0 0 0 0 0 0 0 0 0 0 0 0 0 0 0 0 0 0 0 0 0 0 0 0 0 0 0 0 0 0
0 0 0 0 0 0 0 0 0 -0 0 0 -0 0 0 0 0 0 0 0 0 0 0 0 0 0 0 0 0 0 0 0 0 0 0 0 0 0 0 0 0 0 0 0 0 0 0 0 0
0 0 0 0 0 0 0 0 0 0 0 0 0 -0 -0 -0 -0 0 0 0 0 0 0 0 0 0 0 0 0 0 0 0 0 0 0 0 0 0 0 0 0 0 0 0 0 0 0 0 0
Wind_Speed_500mb
6 7 10 7 5 1 5 5 4 4 7 9 8 4 10 10 6 1 8 52 61 65 65 62 63 64 63 61 61 58 53 45 39 35 31 30 31 35 39 43 42 43 44 45 44 44 42 41 40
5 10 7 5 3 6 4 5 8 9 12 2 3 2 4 3 6 3 31 46 65 66 67 64 62 61 60 60 58 54 48 40 35 36 35 36 39 42 43 44 45 46 45 46 44 44 42 41 40
9 6 3 6 3 5 5 7 10 16 11 8 2 8 5 1 5 11 32 53 62 65 68 65 62 60 59 57 53 47 40 35 38 39 42 45 46 45 44 46 47 46 46 46 42 41 41 40 39
4 1 7 2 6 8 8 4 5 8 3 6 4 2 6 7 5 16 45 55 62 65 69 65 63 63 61 58 53 46 39 40 40 43 47 49 49 48 47 47 48 48 46 44 39 37 36 36 32
5 3 2 2 8 9 12 5 1 4 8 1 2 3 7 7 5 22 48 52 59 64 68 67 63 64 64 58 49 42 41 41 41 46 48 50 50 48 47 48 48 46 44 41 37 35 32 29 28
5 5 2 2 8 9 12 3 7 3 1 3 4 8 4 4 14 36 45 48 52 63 66 65 61 60 61 56 48 46 45 44 44 45 47 50 52 50 48 46 42 40 39 36 35 32 29 29 26
5 3 3 6 8 10 6 3 2 1 4 4 7 5 7 12 22 35 43 46 47 52 62 61 59 61 63 57 52 50 46 46 40 41 46 52 53 51 46 41 37 34 32 31 27 29 30 26 21
6 3 3 5 4 9 4 2 4 4 4 6 7 7 10 29 27 37 48 48 41 49 61 65 62 65 65 49 47 43 35 30 34 46 49 52 51 49 46 39 32 28 26 22 24 23 18 17 15
7 2 4 7 5 7 3 3 3 6 7 3 1 9 14 33 32 40 44 32 31 32 56 69 73 69 53 61 50 34 33 40 46 48 51 51 48 44 39 35 31 25 21 22 20 16 15 12 10
5 5 13 10 8 6 2 5 6 5 7 4 4 5 29 29 38 42 42 39 42 47 51 59 70 68 63 61 60 38 34 43 49 51 49 45 42 39 35 31 26 22 19 17 11 10 9 6 8
9 9 4 8 18 7 6 6 4 2 7 9 14 28 34 35 40 35 40 43 46 52 65 68 86 80 75 59 45 42 43 46 48 48 46 42 39 34 31 27 22 20 15 10 6 4 2 5 9
7 11 11 9 6 4 5 7 5 1 7 13 18 31 35 36 38 43 42 46 47 66 86 85 80 70 67 42 40 41 46 47 47 45 40 35 33 31 26 22 19 17 12 8 4 2 4 9 14
8 7 5 6 7 6 12 11 3 13 16 8 29 34 32 30 34 37 37 54 52 67 82 77 70 61 38 31 35 42 45 45 45 41 37 32 27 22 24 23 19 19 12 9 5 7 10 12 16
6 2 7 6 5 6 6 1 6 6 7 14 22 28 27 28 39 46 62 50 57 76 53 72 84 58 41 36 35 40 45 46 42 39 31 28 26 23 20 17 16 13 12 10 7 6 10 14 16
4 3 5 2 4 2 6 2 5 4 9 16 14 25 26 30 47 57 51 49 72 44 81 76 55 34 28 25 30 37 44 42 38 35 29 27 23 20 15 14 15 15 12 8 5 6 10 14 16
4 6 5 1 7 2 7 6 5 15 13 20 17 23 23 24 32 48 51 59 64 76 77 60 41 33 26 26 34 41 43 40 33 32 27 21 16 13 14 14 17 14 13 6 2 9 12 15 18
8 2 2 6 9 5 10 4 14 24 17 16 24 24 18 27 37 57 56 71 76 74 63 43 32 28 29 33 36 41 44 36 32 29 22 19 15 16 16 18 17 14 8 2 4 9 13 16 16
8 4 3 6 3 6 9 8 16 32 26 20 19 23 25 33 45 56 61 60 65 61 47 34 27 25 25 33 40 40 38 37 35 31 27 23 24 20 19 19 18 16 10 4 5 10 15 17 18
10 8 7 7 5 6 8 8 26 35 29 28 29 26 29 44 40 53 63 59 62 57 45 39 38 38 38 43 44 42 41 40 38 31 23 30 26 20 23 23 23 18 11 8 6 13 20 21 23
7 8 10 10 3 10 4 11 14 30 40 46 44 39 39 38 48 51 58 62 64 64 55 48 44 45 44 43 42 40 38 38 34 26 33 31 23 23 26 26 25 22 16 11 9 15 19 22 24
9 9 8 12 4 1 1 5 8 14 29 29 39 44 43 51 57 68 68 67 62 61 55 51 46 46 48 48 44 43 42 43 39 40 36 30 28 30 32 32 30 24 16 12 11 19 27 27 26
6 12 6 5 3 2 4 5 6 13 27 26 44 47 56 55 58 65 74 77 74 67 63 58 52 49 49 47 48 50 50 51 48 37 34 32 37 39 38 36 31 23 17 11 20 28 29 31 25
10 8 5 3 4 2 2 4 6 5 21 35 51 56 60 66 66 67 73 73 72 70 65 61 58 52 49 46 50 51 54 53 37 37 37 40 44 44 43 38 33 23 19 17 26 31 27 29 30
10 7 8 6 4 2 1 6 7 8 10 9 40 51 62 70 73 72 70 67 65 60 60 62 61 56 53 52 52 54 57 51 40 42 45 48 48 46 45 42 37 31 22 19 25 29 27 30 33
4 6 0 2 3 5 8 5 15 11 16 20 23 41 67 75 75 77 79 78 77 71 66 62 59 59 58 56 57 63 61 53 41 40 44 50 48 49 51 46 41 35 23 27 39 27 31 35 33
6 8 7 6 6 3 3 10 8 8 18 29 30 26 36 58 78 81 81 79 77 72 68 60 66 62 54 68 65 62 60 53 43 39 40 41 42 50 52 49 45 23 52 35 24 31 34 34 31
6 7 2 12 4 1 4 8 18 7 13 21 22 20 18 37 54 72 78 78 78 75 70 63 54 61 62 58 63 60 55 55 49 43 44 48 50 52 51 45 29 40 31 20 25 31 32 31 32
5 15 5 3 7 6 4 6 8 9 9 11 15 22 17 19 35 46 64 75 77 72 68 57 58 61 58 56 55 56 55 48 48 49 54 53 52 47 39 22 27 31 16 19 30 32 31 35 33
7 5 5 7 5 5 4 7 12 12 6 8 13 19 18 14 19 29 40 54 66 65 60 65 58 48 49 48 46 46 45 49 57 57 52 51 49 40 19 40 47 13 19 30 36 34 36 36 34
4 11 11 7 8 2 3 12 8 16 13 15 21 18 14 11 14 21 29 37 45 51 55 62 53 38 38 41 44 49 55 58 55 48 49 43 34 38 31 34 21 22 30 36 38 38 38 39 40
Wind_Direction_500mb
281 205 185 164 209 288 239 226 295 233 191 237 297 232 193 112 181 126 179 168 171 168 167 166 163 160 159 156 154 152 149 146 146 147 146 146 139 135 134 129 128 123 117 114 110 110 112 109 106
199 181 184 113 202 221 236 257 205 212 250 347 214 269 67 80 92 311 153 165 167 168 168 167 164 160 158 155 151 148 146 146 149 145 141 142 138 137 133 130 127 126 120 112 109 107 112 115 112
185 206 274 79 109 228 246 213 287 281 290 208 205 44 72 325 72 157 165 161 169 167 170 166 164 161 158 155 150 144 141 144 144 138 138 140 139 137 135 132 131 127 120 115 111 108 108 112 112
184 267 44 47 255 245 237 193 271 318 276 219 155 104 112 40 122 160 156 161 171 171 172 166 166 163 159 155 149 143 142 143 139 135 138 140 139 139 137 132 127 125 121 119 115 111 110 109 107
133 40 60 339 278 269 255 290 183 287 343 296 165 115 52 4 137 160 158 168 176 173 171 170 169 168 162 154 146 143 139 137 136 136 140 141 139 138 134 127 126 126 121 118 116 112 109 107 110
82 76 5 291 268 275 276 190 141 175 253 86 79 89 54 76 137 161 169 173 183 175 174 171 173 169 157 147 138 131 131 135 137 137 144 141 139 136 134 131 129 126 123 120 118 114 116 113 109
118 102 234 261 284 295 298 117 201 147 119 83 128 106 149 159 167 159 168 176 178 176 174 169 170 165 154 140 141 132 132 129 138 152 147 143 141 141 139 137 135 133 129 123 122 122 117 113 115
139 117 201 250 250 280 308 84 41 49 94 113 183 173 160 166 176 167 174 179 187 191 179 170 162 157 145 146 132 121 121 128 167 153 147 144 144 143 145 142 141 138 133 130 126 118 112 116 109
167 171 246 258 227 279 294 108 78 127 137 171 259 174 186 169 178 173 176 170 183 190 167 164 161 149 140 141 131 122 139 160 155 150 151 149 147 145 147 150 150 147 140 130 121 106 107 102 83
167 212 220 210 207 247 236 179 177 168 167 127 100 171 161 177 179 176 174 174 178 166 145 155 143 134 137 125 125 141 167 165 157 154 153 150 148 151 150 150 150 146 139 132 119 103 82 64 44
188 233 242 251 246 227 153 210 165 164 228 204 195 163 170 177 175 183 175 174 178 175 162 154 133 126 128 142 159 162 161 159 158 157 155 155 151 150 153 149 153 158 154 141 126 95 45 353 337
246 273 265 286 239 142 157 111 53 349 288 266 187 174 171 169 178 178 167 175 167 145 150 132 138 135 122 134 161 159 166 164 165 161 157 156 157 155 156 162 168 182 167 191 194 244 300 317 315
220 290 312 286 117 103 99 52 100 334 336 177 163 174 175 175 180 183 172 138 134 138 134 135 134 146 151 160 166 173 174 168 169 164 164 164 162 169 176 178 182 190 182 190 227 272 293 312 320
180 240 92 116 108 95 68 91 3 323 84 129 167 170 175 170 166 158 154 148 144 134 142 142 133 146 156 176 177 178 175 172 173 178 177 177 175 179 180 186 183 192 196 219 252 285 306 312 313
196 158 106 117 169 41 120 328 21 159 169 138 173 145 156 170 161 157 162 160 165 167 147 149 152 167 177 184 187 186 180 180 183 187 190 187 188 191 177 187 195 200 203 215 241 295 319 327 330
33 62 39 326 164 290 182 284 165 183 166 155 147 144 153 151 162 160 168 164 164 159 158 166 176 183 190 197 192 188 185 188 194 190 189 190 190 183 186 202 207 202 184 183 342 340 347 337 330
29 138 91 334 240 143 214 244 180 196 183 161 165 182 171 161 158 168 166 159 160 167 175 183 195 204 200 200 192 192 192 197 202 200 195 197 202 200 204 203 191 180 176 207 338 341 343 336 332
188 181 199 262 175 224 237 208 179 191 205 194 195 188 182 184 181 177 175 174 177 179 186 197 206 205 200 198 193 194 197 205 207 204 196 205 204 202 209 200 197 189 204 244 314 341 349 340 331
177 180 235 238 241 247 233 211 203 192 198 204 210 201 199 199 189 191 193 199 200 198 205 212 212 213 205 199 199 203 210 213 214 209 197 199 200 209 204 200 198 207 221 250 288 339 345 343 339
186 229 263 306 304 208 193 240 214 202 212 204 201 211 213 206 204 203 204 203 205 210 219 224 227 222 212 211 211 216 221 221 221 201 198 201 207 205 206 205 210 222 237 247 301 336 345 341 336
207 206 221 267 330 16 252 242 194 222 235 225 223 218 218 217 210 212 212 216 220 222 224 224 223 218 218 218 220 225 224 220 209 202 204 210 210 208 209 213 222 233 245 255 306 339 336 327 326
254 220 204 221 205 269 303 281 238 207 223 235 231 220 221 222 225 220 222 221 224 226 228 229 229 226 222 221 227 229 230 227 215 215 216 220 213 212 215 217 228 241 247 271 321 327 324 320 315
229 157 176 151 123 189 221 265 276 165 224 228 227 224 225 225 226 228 224 225 227 227 228 230 231 231 231 232 232 232 233 234 226 217 221 222 215 215 215 224 235 243 255 278 315 321 313 312 310
134 121 57 69 114 233 251 239 276 239 231 251 233 225 225 229 227 228 231 231 230 229 228 227 229 234 238 238 237 240 238 239 222 218 225 222 217 219 222 231 232 232 248 291 314 298 301 307 306
140 92 211 131 157 202 130 161 252 276 258 252 262 227 231 230 229 228 226 226 229 232 232 229 232 238 243 242 243 238 241 239 230 231 230 222 223 226 230 231 230 236 236 296 305 292 300 302 305
172 172 166 190 191 189 207 219 238 226 294 289 279 276 250 237 231 230 228 226 226 227 230 233 234 236 246 245 242 242 241 239 224 222 227 227 233 232 231 230 231 236 314 289 285 278 292 299 303
166 195 108 103 24 187 249 285 277 252 290 302 300 304 262 234 230 230 230 230 231 228 230 228 235 239 251 247 242 241 242 235 215 220 224 229 230 229 228 225 224 301 292 270 272 283 290 297 304
181 143 136 67 175 240 235 265 246 305 325 326 310 308 316 250 232 230 230 229 234 233 231 231 238 241 248 252 249 244 238 229 221 228 226 226 227 224 216 223 277 281 263 274 279 283 291 299 300
147 181 75 120 161 215 267 246 217 244 279 297 280 286 287 273 246 239 234 231 230 231 226 223 231 238 243 245 241 233 229 222 226 233 225 224 222 208 249 270 289 248 275 281 280 285 293 293 293
202 184 158 153 192 196 251 254 236 251 262 274 276 276 271 256 242 247 243 238 235 232 222 219 225 232 224 226 220 220 220 225 232 227 218 218 203 285 252 268 259 272 278 279 282 289 291 286 285
Wind_Speed_850mb
6 7 10 7 5 1 5 5 4 4 7 9 8 4 10 10 6 1 8 52 61 65 65 62 63 64 63 61 61 58 53 45 39 35 31 30 31 35 39 43 42 43 44 45 44 44 42 41 40
5 10 7 5 3 6 4 5 8 9 12 2 3 2 4 3 6 3 31 46 65 66 67 64 62 61 60 60 58 54 48 40 35 36 35 36 39 42 43 44 45 46 45 46 44 44 42 41 40
9 6 3 6 3 5 5 7 10 16 11 8 2 8 5 1 5 11 32 53 62 65 68 65 62 60 59 57 53 47 40 35 38 39 42 45 46 45 44 46 47 46 46 46 42 41 41 40 39
4 1 7 2 6 8 8 4 5 8 3 6 4 2 6 7 5 16 45 55 62 65 69 65 63 63 61 58 53 46 39 40 40 43 47 49 49 48 47 47 48 48 46 44 39 37 36 36 32
5 3 2 2 8 9 12 5 1 4 8 1 2 3 7 7 5 22 48 52 59 64 68 67 63 64 64 58 49 42 41 41 41 46 48 50 50 48 47 48 48 46 44 41 37 35 32 29 28
5 5 2 2 8 9 12 3 7 3 1 3 4 8 4 4 14 36 45 48 52 63 66 65 61 60 61 56 48 46 45 44 44 45 47 50 52 50 48 46 42 40 39 36 35 32 29 29 26
5 3 3 6 8 10 6 3 2 1 4 4 7 5 7 12 22 35 43 46 47 52 62 61 59 61 63 57 52 50 46 46 40 41 46 52 53 51 46 41 37 34 32 31 27 29 30 26 21
6 3 3 5 4 9 4 2 4 4 4 6 7 7 10 29 27 37 48 48 41 49 61 65 62 65 65 49 47 43 35 30 34 46 49 52 51 49 46 39 32 28 26 22 24 23 18 17 15
7 2 4 7 5 7 3 3 3 6 7 3 1 9 14 33 32 40 44 32 31 32 56 69 73 69 53 61 50 34 33 40 46 48 51 51 48 44 39 35 31 25 21 22 20 16 15 12 10
5 5 13 10 8 6 2 5 6 5 7 4 4 5 29 29 38 42 42 39 42 47 51 59 70 68 63 61 60 38 34 43 49 51 49 45 42 39 35 31 26 22 19 17 11 10 9 6 8
9 9 4 8 18 7 6 6 4 2 7 9 14 28 34 35 40 35 40 43 46 52 65 68 86 80 75 59 45 42 43 46 48 48 46 42 39 34 31 27 22 20 15 10 6 4 2 5 9
7 11 11 9 6 4 5 7 5 1 7 13 18 31 35 36 38 43 42 46 47 66 86 85 80 70 67 42 40 41 46 47 47 45 40 35 33 31 26 22 19 17 12 8 4 2 4 9 14
8 7 5 6 7 6 12 11 3 13 16 8 29 34 32 30 34 37 37 54 52 67 82 77 70 61 38 31 35 42 45 45 45 41 37 32 27 22 24 23 19 19 12 9 5 7 10 12 16
6 2 7 6 5 6 6 1 6 6 7 14 22 28 27 28 39 46 62 50 57 76 53 72 84 58 41 36 35 40 45 46 42 39 31 28 26 23 20 17 16 13 12 10 7 6 10 14 16
4 3 5 2 4 2 6 2 5 4 9 16 14 25 26 30 47 57 51 49 72 44 81 76 55 34 28 25 30 37 44 42 38 35 29 27 23 20 15 14 15 15 12 8 5 6 10 14 16
4 6 5 1 7 2 7 6 5 15 13 20 17 23 23 24 32 48 51 59 64 76 77 60 41 33 26 26 34 41 43 40 33 32 27 21 16 13 14 14 17 14 13 6 2 9 12 15 18
8 2 2 6 9 5 10 4 14 24 17 16 24 24 18 27 37 57 56 71 76 74 63 43 32 28 29 33 36 41 44 36 32 29 22 19 15 16 16 18 17 14 8 2 4 9 13 16 16
8 4 3 6 3 6 9 8 16 32 26 20 19 23 25 33 45 56 61 60 65 61 47 34 27 25 25 33 40 40 38 37 35 31 27 23 24 20 19 19 18 16 10 4 5 10 15 17 18
10 8 7 7 5 6 8 8 26 35 29 28 29 26 29 44 40 53 63 59 62 57 45 39 38 38 38 43 44 42 41 40 38 31 23 30 26 20 23 23 23 18 11 8 6 13 20 21 23
7 8 10 10 3 10 4 11 14 30 40 46 44 39 39 38 48 51 58 62 64 64 55 48 44 45 44 43 42 40 38 38 34 26 33 31 23 23 26 26 25 22 16 11 9 15 19 22 24
9 9 8 12 4 1 1 5 8 14 29 29 39 44 43 51 57 68 68 67 62 61 55 51 46 46 48 48 44 43 42 43 39 40 36 30 28 30 32 32 30 24 16 12 11 19 27 27 26
6 12 6 5 3 2 4 5 6 13 27 26 44 47 56 55 58 65 74 77 74 67 63 58 52 49 49 47 48 50 50 51 48 37 34 32 37 39 38 36 31 23 17 11 20 28 29 31 25
10 8 5 3 4 2 2 4 6 5 21 35 51 56 60 66 66 67 73 73 72 70 65 61 58 52 49 46 50 51 54 53 37 37 37 40 44 44 43 38 33 23 19 17 26 31 27 29 30
10 7 8 6 4 2 1 6 7 8 10 9 40 51 62 70 73 72 70 67 65 60 60 62 61 56 53 52 52 54 57 51 40 42 45 48 48 46 45 42 37 31 22 19 25 29 27 30 33
4 6 0 2 3 5 8 5 15 11 16 20 23 41 67 75 75 77 79 78 77 71 66 62 59 59 58 56 57 63 61 53 41 40 44 50 48 49 51 46 41 35 23 27 39 27 31 35 33
6 8 7 6 6 3 3 10 8 8 18 29 30 26 36 58 78 81 81 79 77 72 68 60 66 62 54 68 65 62 60 53 43 39 40 41 42 50 52 49 45 23 52 35 24 31 34 34 31
6 7 2 12 4 1 4 8 18 7 13 21 22 20 18 37 54 72 78 78 78 75 70 63 54 61 62 58 63 60 55 55 49 43 44 48 50 52 51 45 29 40 31 20 25 31 32 31 32
5 15 5 3 7 6 4 6 8 9 9 11 15 22 17 19 35 46 64 75 77 72 68 57 58 61 58 56 55 56 55 48 48 49 54 53 52 47 39 22 27 31 16 19 30 32 31 35 33
7 5 5 7 5 5 4 7 12 12 6 8 13 19 18 14 19 29 40 54 66 65 60 65 58 48 49 48 46 46 45 49 57 57 52 51 49 40 19 40 47 13 19 30 36 34 36 36 34
4 11 11 7 8 2 3 12 8 16 13 15 21 18 14 11 14 21 29 37 45 51 55 62 53 38 38 41 44 49 55 58 55 48 49 43 34 38 31 34 21 22 30 36 38 38 38 39 40
Wind_Direction_850mb
281 205 185 164 209 288 239 226 295 233 191 237 297 232 193 112 181 126 179 168 171 168 167 166 163 160 159 156 154 152 149 146 146 147 146 146 139 135 134 129 128 123 117 114 110 110 112 109 106
199 181 184 113 202 221 236 257 205 212 250 347 214 269 67 80 92 311 153 165 167 168 168 167 164 160 158 155 151 148 146 146 149 145 141 142 138 137 133 130 127 126 120 112 109 107 112 115 112
185 206 274 79 109 228 246 213 287 281 290 208 205 44 72 325 72 157 165 161 169 167 170 166 164 161 158 155 150 144 141 144 144 138 138 140 139 137 135 132 131 127 120 115 111 108 108 112 112
184 267 44 47 255 245 237 193 271 318 276 219 155 104 112 40 122 160 156 161 171 171 172 166 166 163 159 155 149 143 142 143 139 135 138 140 139 139 137 132 127 125 121 119 115 111 110 109 107
133 40 60 339 278 269 255 290 183 287 343 296 165 115 52 4 137 160 158 168 176 173 171 170 169 168 162 154 146 143 139 137 136 136 140 141 139 138 134 127 126 126 121 118 116 112 109 107 110
82 76 5 291 268 275 276 190 141 175 253 86 79 89 54 76 137 161 169 173 183 175 174 171 173 169 157 147 138 131 131 135 137 137 144 141 139 136 134 131 129 126 123 120 118 114 116 113 109
118 102 234 261 284 295 298 117 201 147 119 83 128 106 149 159 167 159 168 176 178 176 174 169 170 165 154 140 141 132 132 129 138 152 147 143 141 141 139 137 135 133 129 123 122 122 117 113 115
139 117 201 250 250 280 308 84 41 49 94 113 183 173 160 166 176 167 174 179 187 191 179 170 162 157 145 146 132 121 121 128 167 153 147 144 144 143 145 142 141 138 133 130 126 118 112 116 109
167 171 246 258 227 279 294 108 78 127 137 171 259 174 186 169 178 173 176 170 183 190 167 164 161 149 140 141 131 122 139 160 155 150 151 149 147 145 147 150 150 147 140 130 121 106 107 102 83
167 212 220 210 207 247 236 179 177 168 167 127 100 171 161 177 179 176 174 174 178 166 145 155 143 134 137 125 125 141 167 165 157 154 153 150 148 151 150 150 150 146 139 132 119 103 82 64 44
188 233 242 251 246 227 153 210 165 164 228 204 195 163 170 177 175 183 175 174 178 175 162 154 133 126 128 142 159 162 161 159 158 157 155 155 151 150 153 149 153 158 154 141 126 95 45 353 337
246 273 265 286 239 142 157 111 53 349 288 266 187 174 171 169 178 178 167 175 167 145 150 132 138 135 122 134 161 159 166 164 165 161 157 156 157 155 156 162 168 182 167 191 194 244 300 317 315
220 290 312 286 117 103 99 52 100 334 336 177 163 174 175 175 180 183 172 138 134 138 134 135 134 146 151 160 166 173 174 168 169 164 164 164 162 169 176 178 182 190 182 190 227 272 293 312 320
180 240 92 116 108 95 68 91 3 323 84 129 167 170 175 170 166 158 154 148 144 134 142 142 133 146 156 176 177 178 175 172 173 178 177 177 175 179 180 186 183 192 196 219 252 285 306 312 313
196 158 106 117 169 41 120 328 21 159 169 138 173 145 156 170 161 157 162 160 165 167 147 149 152 167 177 184 187 186 180 180 183 187 190 187 188 191 177 187 195 200 203 215 241 295 319 327 330
33 62 39 326 164 290 182 284 165 183 166 155 147 144 153 151 162 160 168 164 164 159 158 166 176 183 190 197 192 188 185 188 194 190 189 190 190 183 186 202 207 202 184 183 342 340 347 337 330
29 138 91 334 240 143 214 244 180 196 183 161 165 182 171 161 158 168 166 159 160 167 175 183 195 204 200 200 192 192 192 197 202 200 195 197 202 200 204 203 191 180 176 207 338 341 343 336 332
188 181 199 262 175 224 237 208 179 191 205 194 195 188 182 184 181 177 175 174 177 179 186 197 206 205 200 198 193 194 197 205 207 204 196 205 204 202 209 200 197 189 204 244 314 341 349 340 331
177 180 235 238 241 247 233 211 203 192 198 204 210 201 199 199 189 191 193 199 200 198 205 212 212 213 205 199 199 203 210 213 214 209 197 199 200 209 204 200 198 207 221 250 288 339 345 343 339
186 229 263 306 304 208 193 240 214 202 212 204 201 211 213 206 204 203 204 203 205 210 219 224 227 222 212 211 211 216 221 221 221 201 198 201 207 205 206 205 210 222 237 247 301 336 345 341 336
207 206 221 267 330 16 252 242 194 222 235 225 223 218 218 217 210 212 212 216 220 222 224 224 223 218 218 218 220 225 224 220 209 202 204 210 210 208 209 213 222 233 245 255 306 339 336 327 326
254 220 204 221 205 269 303 281 238 207 223 235 231 220 221 222 225 220 222 221 224 226 228 229 229 226 222 221 227 229 230 227 215 215 216 220 213 212 215 217 228 241 247 271 321 327 324 320 315
229 157 176 151 123 189 221 265 276 165 224 228 227 224 225 225 226 228 224 225 227 227 228 230 231 231 231 232 232 232 233 234 226 217 221 222 215 215 215 224 235 243 255 278 315 321 313 312 310
134 121 57 69 114 233 251 239 276 239 231 251 233 225 225 229 227 228 231 231 230 229 228 227 229 234 238 238 237 240 238 239 222 218 225 222 217 219 222 231 232 232 248 291 314 298 301 307 306
140 92 211 131 157 202 130 161 252 276 258 252 262 227 231 230 229 228 226 226 229 232 232 229 232 238 243 242 243 238 241 239 230 231 230 222 223 226 230 231 230 236 236 296 305 292 300 302 305
172 172 166 190 191 189 207 219 238 226 294 289 279 276 250 237 231 230 228 226 226 227 230 233 234 236 246 245 242 242 241 239 224 222 227 227 233 232 231 230 231 236 314 289 285 278 292 299 303
166 195 108 103 24 187 249 285 277 252 290 302 300 304 262 234 230 230 230 230 231 228 230 228 235 239 251 247 242 241 242 235 215 220 224 229 230 229 228 225 224 301 292 270 272 283 290 297 304
181 143 136 67 175 240 235 265 246 305 325 326 310 308 316 250 232 230 230 229 234 233 231 231 238 241 248 252 249 244 238 229 221 228 226 226 227 224 216 223 277 281 263 274 279 283 291 299 300
147 181 75 120 161 215 267 246 217 244 279 297 280 286 287 273 246 239 234 231 230 231 226 223 231 238 243 245 241 233 229 222 226 233 225 224 222 208 249 270 289 248 275 281 280 285 293 293 293
202 184 158 153 192 196 251 254 236 251 262 274 276 276 271 256 242 247 243 238 235 232 222 219 225 232 224 226 220 220 220 225 232 227 218 218 203 285 252 268 259 272 278 279 282 289 291 286 285